Hylas 2

operational
NORAD ID: 38741 Int'l Des: 2012-043 Owner: AVANTI Country: UK
HEOCIRCULARGSO

Hylas 2について

説明を読み込み中...

リアルタイム位置

3D地球を読み込み中...

次回通過

高度履歴

Altitude vs Time

uPlot chart will show altitude changes over time

軌道要素

1 38741U 12043B 26061.14590506 -.00000274 00000-0 00000+0 0 9991
2 38741 2.1510 82.4148 0002605 275.9320 141.5358 1.00271106 49707
Epoch: Mar 2, 2026 • Age: 42 hours

現在のステータス

高度 35775.7 km
速度 3.08 km/s
衛星直下点 -2.16°S, 72.56°W
打ち上げ日 Aug 2, 2012
運用期間 13.5 years
タイプ other

技術仕様

分類 Payload
質量 3311.00 kg
乾燥質量 1532.00 kg
総質量 3311.00 kg
長さ 4.80 m
直径 2.50 m
スパン 23.60 m
形状 Box + 2 Pan
製造者 OSCD
バスタイプ Star-2.4E
フェーズステータス In Orbit
所有者/国 AVANTI/UK

大規模コンステレーション

Loading constellations...